Pierceville, KS

3:28 PM CST on January 19, 2017 (GMT -0600)
Garden City Regional

Weather History for KGCK - March, 2013

Change the Weather History Date:

Saturday, March 23, 2013

  Actual Average Record
Temperature  
Mean Temperature 30 °F 46 °F  
Max Temperature 35 °F 60 °F 83 °F (1996)
Min Temperature 24 °F 31 °F 10 °F (1965)
Degree Days  
Heating Degree Days 35 19  
Month to date heating degree days 470 518  
Since 1 July heating degree days 4371 4542  
Cooling Degree Days 0 0  
Month to date cooling degree days 0 0  
Year to date cooling degree days 0 0  
Moisture  
Dew Point 26 °F    
Average Humidity 88    
Maximum Humidity 100    
Minimum Humidity 75    
Precipitation  
Precipitation 0.01 in 0.06 in 1.55 in (1973)
Month to date precipitation 0.07 0.99  
Year to date precipitation 0.41 1.87  
Sea Level Pressure  
Sea Level Pressure 29.91 in    
Wind  
Wind Speed 19 mph (NE)    
Max Wind Speed 31 mph    
Max Gust Speed 37 mph    
Visibility 3 miles    
Events Fog , Rain , Snow    
T = Trace of Precipitation, MM = Missing Value Source: NWS Daily Summary

Daily Weather History Graph

Daily Weather History Graph

Search for Another Location

Airport or City:

Trip Planner

Search our weather history database for the weather conditions in past years. The results will help you decide how hot, cold, wet, or windy it might be!

Date:

Astronomy

Mar. 23, 2013 Rise Set
Actual Time 7:41 AM CDT 7:57 PM CDT
Civil Twilight 7:15 AM CDT 8:24 PM CDT
Nautical Twilight 6:44 AM CDT 8:54 PM CDT
Astronomical Twilight 6:13 AM CDT 9:26 PM CDT
Moon 4:29 PM CDT (3/23) 5:15 AM CDT (3/23)
Length of Visible Light 13h 09m
Length of Day
12h 16m
Waxing Gibbous, 85% of the Moon is Illuminated
Mar 23
Waxing Gibbous
Mar 27
Full
Apr 2
Last Quarter
Apr 10
New
Apr 18
First Quarter

Hourly Weather History & Observations

Time (CDT) Temp. Windchill Dew Point Humidity Pressure Visibility Wind Dir Wind Speed Gust Speed Precip Events Conditions
12:54 AM 35.1 °F 24.5 °F 28.9 °F 78% 29.80 in 10.0 mi ESE 18.4 mph - N/A   Mostly Cloudy
1:54 AM 33.1 °F 22.2 °F 28.0 °F 82% 29.81 in 8.0 mi ESE 17.3 mph - N/A   Overcast
2:11 AM 33.8 °F 23.5 °F 28.4 °F 81% 29.80 in 8.0 mi ESE 16.1 mph - N/A   Overcast
2:34 AM 33.8 °F 23.2 °F 28.4 °F 81% 29.82 in 7.0 mi East 17.3 mph - N/A   Overcast
2:47 AM 33.8 °F 23.5 °F 30.2 °F 87% 29.83 in 7.0 mi ESE 16.1 mph - N/A   Overcast
2:54 AM 34.0 °F 25.0 °F 30.0 °F 85% 29.85 in 7.0 mi East 12.7 mph - N/A   Overcast
3:54 AM 34.0 °F 23.4 °F 30.0 °F 85% 29.83 in 7.0 mi East 17.3 mph - N/A   Overcast
4:54 AM 34.0 °F 23.8 °F 30.0 °F 85% 29.81 in 7.0 mi East 16.1 mph - N/A   Overcast
5:54 AM 30.9 °F 19.8 °F 28.9 °F 92% 29.83 in 4.0 mi East 16.1 mph - N/A   Overcast
6:54 AM 30.9 °F 22.2 °F 28.9 °F 92% 29.86 in 5.0 mi East 10.4 mph - N/A   Overcast
7:19 AM 30.2 °F 20.2 °F 28.4 °F 93% 29.86 in 4.0 mi East 12.7 mph - N/A   Overcast
7:33 AM 30.2 °F 20.2 °F 28.4 °F 93% 29.86 in 3.0 mi ENE 12.7 mph - 0.00 in Snow Light Snow
7:40 AM 30.2 °F 19.8 °F 28.4 °F 93% 29.87 in 2.5 mi ENE 13.8 mph - 0.00 in Snow Light Snow
7:54 AM 30.0 °F 19.5 °F 28.9 °F 96% 29.89 in 2.5 mi ENE 13.8 mph - 0.00 in Snow Light Snow
8:25 AM 30.2 °F 18.9 °F 28.4 °F 93% 29.87 in 1.5 mi ENE 16.1 mph - 0.00 in Snow Light Snow
8:52 AM 30.2 °F 19.3 °F 28.4 °F 93% 29.87 in 1.5 mi ENE 15.0 mph - 0.00 in Rain Light Freezing Rain
8:54 AM 30.0 °F 20.0 °F 28.0 °F 92% 29.90 in 1.5 mi NE 12.7 mph - 0.00 in Rain Light Freezing Rain
9:47 AM 28.4 °F 17.0 °F 28.4 °F 100% 29.87 in 1.2 mi ENE 15.0 mph - 0.00 in Rain Light Freezing Rain
9:54 AM 28.9 °F 16.9 °F 28.0 °F 96% 29.90 in 1.5 mi NE 17.3 mph - 0.00 in Rain Light Freezing Rain
10:54 AM 28.9 °F 16.9 °F 28.0 °F 96% 29.92 in 1.0 mi ENE 17.3 mph - 0.00 in Rain Light Freezing Rain
11:01 AM 28.4 °F 16.6 °F 28.4 °F 100% 29.87 in 1.2 mi ENE 16.1 mph - 0.00 in Rain Light Freezing Rain
11:54 AM 28.9 °F 16.5 °F 27.0 °F 92% 29.91 in 2.0 mi ENE 18.4 mph - 0.00 in Rain Light Freezing Rain
12:01 PM 28.4 °F 16.6 °F 26.6 °F 93% 29.87 in 1.5 mi ENE 16.1 mph - 0.00 in Rain Light Freezing Rain
12:17 PM 30.2 °F 19.8 °F 28.4 °F 93% 29.87 in 2.5 mi ENE 13.8 mph - 0.00 in Rain Light Freezing Rain
12:54 PM 28.9 °F 17.7 °F 27.0 °F 92% 29.92 in 1.8 mi NE 15.0 mph 24.2 mph 0.00 in Rain Light Freezing Rain
1:14 PM 28.4 °F 17.5 °F 26.6 °F 93% 29.87 in 2.5 mi NE 13.8 mph 23.0 mph 0.00 in Rain Light Freezing Rain
1:54 PM 28.9 °F 16.5 °F 27.0 °F 92% 29.92 in 2.0 mi NE 18.4 mph - 0.00 in Rain Light Freezing Rain
2:06 PM 28.4 °F 16.2 °F 26.6 °F 93% 29.85 in 2.5 mi ENE 17.3 mph - 0.00 in   Overcast
2:11 PM 28.4 °F 15.4 °F 26.6 °F 93% 29.85 in 3.0 mi ENE 19.6 mph - 0.00 in Rain Light Freezing Rain
2:29 PM 28.4 °F 16.6 °F 26.6 °F 93% 29.84 in 2.0 mi NE 16.1 mph 27.6 mph 0.00 in Snow Light Snow
2:44 PM 28.4 °F 17.0 °F 26.6 °F 93% 29.85 in 3.0 mi NE 15.0 mph 23.0 mph 0.00 in Rain Light Freezing Rain
2:54 PM 28.9 °F 18.2 °F 27.0 °F 92% 29.91 in 3.0 mi NE 13.8 mph - 0.00 in Rain Light Freezing Rain
3:08 PM 28.4 °F 15.4 °F 26.6 °F 93% 29.85 in 2.5 mi NE 19.6 mph - 0.00 in Rain Light Freezing Rain
3:16 PM 28.4 °F 15.8 °F 26.6 °F 93% 29.85 in 3.0 mi NE 18.4 mph - 0.00 in Rain Light Freezing Rain
3:33 PM 28.4 °F 16.2 °F 26.6 °F 93% 29.86 in 2.5 mi NE 17.3 mph - 0.00 in Snow Light Snow
3:47 PM 28.4 °F 14.7 °F 26.6 °F 93% 29.86 in 1.5 mi NNE 21.9 mph - 0.00 in Snow Light Snow
3:54 PM 28.0 °F 14.9 °F 26.1 °F 92% 29.92 in 2.0 mi NE 19.6 mph - 0.00 in Snow Light Snow
4:10 PM 28.4 °F 14.4 °F 26.6 °F 93% 29.85 in 1.5 mi NNE 23.0 mph - 0.00 in Snow Light Snow
4:21 PM 28.4 °F 14.4 °F 26.6 °F 93% 29.86 in 3.0 mi NNE 23.0 mph 28.8 mph 0.00 in Snow Light Snow
4:54 PM 28.0 °F 14.6 °F 25.0 °F 88% 29.94 in 4.0 mi NNE 20.7 mph 29.9 mph 0.00 in Snow Light Snow
5:15 PM 28.4 °F 13.5 °F 24.8 °F 86% 29.87 in 1.8 mi NNE 26.5 mph 31.1 mph 0.00 in Snow Light Snow
5:27 PM 28.4 °F 13.5 °F 24.8 °F 86% 29.87 in 1.5 mi NNE 26.5 mph 32.2 mph 0.00 in Snow Light Snow
5:46 PM 28.4 °F 14.4 °F 24.8 °F 86% 29.88 in 2.0 mi NNE 23.0 mph - 0.00 in Snow Light Snow
5:54 PM 28.0 °F 14.3 °F 25.0 °F 88% 29.96 in 2.0 mi NNE 21.9 mph 27.6 mph 0.00 in Snow Light Snow
6:27 PM 26.6 °F 11.4 °F 24.8 °F 93% 29.88 in 2.5 mi NNE 25.3 mph 35.7 mph 0.00 in Snow Light Snow
6:37 PM 26.6 °F 12.0 °F 24.8 °F 93% 29.89 in 1.0 mi North 23.0 mph 32.2 mph 0.00 in Snow Light Snow
6:45 PM 26.6 °F 11.4 °F 24.8 °F 93% 29.91 in 0.8 mi North 25.3 mph 32.2 mph 0.00 in Snow Light Snow
6:52 PM 26.6 °F 11.4 °F 24.8 °F 93% 29.93 in 0.8 mi North 25.3 mph 32.2 mph 0.00 in Snow Light Snow
6:54 PM 27.0 °F 12.5 °F 24.1 °F 89% 30.00 in 0.8 mi North 23.0 mph 32.2 mph 0.00 in Snow Light Snow
7:54 PM 27.0 °F 13.2 °F 24.1 °F 89% 30.04 in 0.5 mi North 20.7 mph 27.6 mph 0.00 in Fog , Snow Snow
8:05 PM 26.6 °F 12.7 °F 24.8 °F 93% 29.97 in 0.8 mi North 20.7 mph - 0.00 in Snow Snow
8:20 PM 26.6 °F 10.8 °F 24.8 °F 93% 29.97 in 0.5 mi North 27.6 mph 35.7 mph 0.00 in Fog , Snow Snow
8:54 PM 26.1 °F 10.1 °F 24.1 °F 92% 30.08 in 0.8 mi North 27.6 mph 34.5 mph 0.00 in Snow Snow
9:03 PM 26.6 °F 11.1 °F 24.8 °F 93% 30.01 in 1.0 mi North 26.5 mph 34.5 mph 0.00 in Snow Snow
9:22 PM 26.6 °F 10.8 °F 23.0 °F 86% 30.03 in 1.0 mi North 27.6 mph 36.8 mph 0.01 in Snow Snow
9:41 PM 26.6 °F 11.4 °F 23.0 °F 86% 30.04 in 1.0 mi North 25.3 mph 34.5 mph 0.01 in Snow Snow
9:54 PM 25.0 °F 10.2 °F 23.0 °F 92% 30.13 in 0.8 mi North 21.9 mph - 0.01 in Snow Snow
10:01 PM 24.8 °F 10.3 °F 23.0 °F 93% 30.06 in 1.0 mi North 20.7 mph 29.9 mph N/A Snow Snow
10:33 PM 24.8 °F 10.0 °F 21.2 °F 86% 30.07 in 1.2 mi North 21.9 mph 31.1 mph 0.00 in Snow Snow
10:54 PM 24.1 °F 7.7 °F 21.9 °F 91% 30.16 in 1.0 mi North 26.5 mph 33.4 mph 0.00 in Snow Snow
11:54 PM 24.1 °F 7.4 °F 21.0 °F 88% 30.18 in 1.0 mi North 27.6 mph 34.5 mph 0.00 in Snow Snow